N6OIM Weather Reports


Display with metric or nautical units.
time (UTC)temp
F
wind
direction
speed
MPH
gust
MPH
rain 1hr
in
rain 24hr
in
rain mn
in
humidity
%
barometer
mb
20260505140321 54 133 0.0 0.0 0.00 0.93 0.93 92 1012.8
20260505124832 53 184 0.0 0.0 0.00 0.93 0.93 91 1012.6
20260505124319 53 184 0.0 0.0 0.00 0.93 0.93 91 1012.5
20260505123814 53 184 0.0 0.0 0.00 0.93 0.93 91 1012.5
20260505123325 53 184 0.0 0.0 0.00 0.93 0.93 91 1012.5
20260505122837 53 184 0.0 0.0 0.00 0.93 0.93 91 1012.3
20260505122324 53 183 0.0 0.0 0.00 0.93 0.93 91 1012.3
20260505121833 53 184 0.0 0.0 0.00 0.93 0.93 91 1012.3
20260505121320 53 184 0.0 0.0 0.00 0.93 0.93 91 1012.3
20260505120829 53 184 0.0 0.0 0.00 0.93 0.93 91 1012.3
20260505120336 53 183 0.0 0.0 0.00 0.93 0.93 91 1012.4
20260505115825 53 184 0.0 0.0 0.00 0.93 0.93 91 1012.5
20260505115336 53 184 0.0 0.0 0.00 0.93 0.93 91 1012.6
20260505114825 53 183 0.0 0.0 0.00 0.93 0.93 91 1012.6
20260505114331 53 184 0.0 0.0 0.00 0.93 0.93 91 1012.6
20260505113819 53 184 0.0 0.0 0.00 0.93 0.93 91 1012.6
20260505113327 53 184 0.0 0.0 0.00 0.93 0.93 91 1012.7
20260505112835 53 183 0.0 0.0 0.00 0.93 0.93 91 1012.8
20260505112322 53 184 0.0 0.0 0.00 0.93 0.93 91 1012.7
20260505111835 53 184 0.0 0.0 0.00 0.93 0.93 91 1012.6
20260505111323 53 184 0.0 0.0 0.00 0.93 0.93 91 1012.6
20260505110835 53 184 0.0 0.0 0.00 0.93 0.93 91 1012.5
20260505110323 53 184 0.0 0.0 0.00 0.93 0.93 91 1012.5
20260505101831 54 184 0.0 0.0 0.00 0.93 0.93 91 1012.5
20260505101320 54 185 0.0 0.0 0.00 0.93 0.93 91 1012.6
20260505100833 54 179 0.0 0.0 0.00 0.93 0.93 91 1012.6
20260505100320 54 179 0.0 0.0 0.00 0.93 0.93 91 1012.6
20260505095830 54 180 0.0 0.0 0.00 0.93 0.93 91 1012.7
20260505095318 54 179 0.0 0.0 0.00 0.93 0.93 91 1012.6
20260505094827 54 137 0.0 0.0 0.00 0.93 0.93 91 1012.6
20260505094320 54 123 0.0 0.0 0.00 0.93 0.93 91 1012.7
20260505093830 54 123 0.0 0.0 0.00 0.93 0.93 91 1012.8
20260505093319 54 123 0.0 0.0 0.00 0.93 0.93 91 1012.9
20260505092829 54 123 0.0 0.0 0.00 0.93 0.93 91 1012.9
20260505092317 54 123 0.0 0.0 0.00 0.93 0.93 91 1012.7
20260505091826 54 122 0.0 0.0 0.00 0.93 0.93 91 1012.9
20260505091334 54 123 0.0 0.0 0.00 0.93 0.93 91 1013.0
20260505090822 54 123 0.0 0.0 0.00 0.93 0.93 91 1013.0
20260505090334 54 122 0.0 0.0 0.00 0.93 0.93 91 1013.1
20260505085827 54 122 0.0 0.0 0.00 0.93 0.93 91 1013.1
20260505085334 54 123 0.0 0.0 0.00 0.93 0.93 91 1013.2
20260505084823 54 122 0.0 0.0 0.00 0.93 0.93 91 1013.3
20260505084330 54 123 0.0 0.0 0.00 0.93 0.93 91 1013.3
20260505083819 54 122 0.0 0.0 0.01 0.93 0.93 91 1013.2
20260505083327 54 122 0.0 0.0 0.02 0.93 0.93 91 1013.3
20260505082816 54 123 0.0 0.0 0.03 0.93 0.93 91 1013.3
20260505082327 54 122 0.0 0.0 0.03 0.93 0.93 91 1013.4
20260505081835 54 123 0.0 0.0 0.05 0.93 0.93 91 1013.4
20260505081327 54 123 0.0 0.0 0.05 0.93 0.93 91 1013.3
20260505080837 54 122 0.0 0.0 0.06 0.93 0.93 91 1013.2
20260505080326 54 123 0.0 0.0 0.07 0.93 0.93 91 1013.2
20260505075835 54 123 0.0 0.0 0.07 0.93 0.93 91 1013.1
20260505075322 54 122 0.0 0.0 0.07 0.93 0.93 91 1013.2
20260505074831 54 123 0.0 0.0 0.07 0.93 0.93 91 1013.2
20260505074320 54 123 0.0 0.0 0.08 0.93 0.93 91 1013.2
20260505073829 54 123 0.0 0.0 0.07 0.92 0.92 91 1013.3
20260505073317 54 123 0.0 0.0 0.07 0.91 0.91 91 1013.2
20260505072830 54 123 0.0 0.0 0.08 0.91 0.91 91 1013.4
20260505072318 54 122 0.0 0.0 0.07 0.90 0.90 91 1013.4
20260505071826 54 122 0.0 0.0 0.05 0.88 0.88 91 1013.5
20260505071319 54 123 0.0 0.0 0.06 0.88 0.88 91 1013.5
20260505070829 54 123 0.0 0.0 0.05 0.87 0.87 91 1013.3
20260505070317 54 122 0.0 0.0 0.05 0.86 0.86 91 1013.4
20260505065828 54 123 0.0 0.0 0.06 0.86 0.86 91 1013.4
20260505065336 54 122 0.0 0.0 0.08 0.86 0.86 91 1013.4
20260505064824 54 123 0.0 0.0 0.09 0.86 0.86 91 1013.4
20260505064335 54 123 0.0 0.0 0.10 0.86 0.86 91 1013.4
20260505063823 54 122 0.0 0.0 0.10 0.85 0.85 91 1013.4
20260505063334 54 123 0.0 0.0 0.12 0.84 0.84 91 1013.5
20260505062822 54 123 0.0 0.0 0.12 0.83 0.83 91 1013.4
20260505062331 54 122 0.0 0.0 0.13 0.83 0.83 91 1013.4
20260505061819 54 123 0.0 0.0 0.13 0.83 0.83 91 1013.4
20260505061331 54 123 0.0 0.0 0.12 0.82 0.82 91 1013.5
20260505060819 54 123 0.0 0.0 0.13 0.82 0.82 90 1013.4
20260505060329 54 123 0.0 0.0 0.12 0.81 0.81 90 1013.4
20260505055822 54 122 0.0 0.0 0.11 0.80 0.80 90 1013.3
20260505055334 54 123 0.0 0.0 0.10 0.79 0.79 90 1013.1
20260505054822 54 123 0.0 0.0 0.08 0.77 0.77 90 1013.5
20260505054335 54 123 0.0 0.0 0.07 0.76 0.76 90 1013.5
20260505053823 54 122 0.0 0.0 0.06 0.75 0.75 90 1013.4
20260505053331 54 123 0.0 0.0 0.03 0.72 0.72 90 1013.4
20260505052820 54 122 0.0 0.0 0.03 0.71 0.71 90 1013.5
20260505052328 54 123 0.0 0.0 0.03 0.70 0.70 90 1013.4
20260505051821 54 123 0.0 0.0 0.05 0.70 0.70 90 1013.3
20260505051329 54 122 0.0 0.0 0.06 0.70 0.70 90 1013.4
20260505050818 54 123 0.0 0.0 0.07 0.69 0.69 90 1013.4
20260505050326 54 123 0.0 0.0 0.09 0.69 0.69 90 1013.4
20260505041328 54 122 0.0 0.0 0.20 0.64 0.64 90 1013.5
20260505040821 55 123 0.0 0.0 0.20 0.62 0.62 90 1013.4
20260505040328 55 123 0.0 0.0 0.20 0.60 0.60 90 1013.4
20260505035817 55 123 0.0 0.0 0.19 0.58 0.58 90 1013.6
20260505035326 55 123 0.0 0.0 0.17 0.56 0.56 90 1013.6
20260505034820 55 123 0.0 0.0 0.17 0.55 0.55 90 1013.6
20260505034328 55 123 0.0 0.0 0.17 0.54 0.54 90 1013.5
20260505033817 55 123 0.0 0.0 0.15 0.52 0.52 90 1013.4
20260505033325 55 123 0.0 0.0 0.14 0.50 0.50 90 1013.4
20260505032833 55 122 0.0 0.0 0.13 0.49 0.49 90 1013.4
20260505032321 55 123 0.0 0.0 0.11 0.47 0.47 90 1013.4
20260505031829 55 122 0.0 0.0 0.10 0.45 0.45 90 1013.4
20260505031318 55 123 0.0 0.0 0.09 0.44 0.44 90 1013.5
20260505030827 55 122 0.0 0.0 0.08 0.42 0.42 90 1013.6
20260505030318 55 122 0.0 0.0 0.07 0.40 0.40 89 1013.6
20260505025827 55 122 0.0 0.0 0.07 0.39 0.39 89 1013.6
20260505025335 55 123 0.0 0.0 0.08 0.39 0.39 89 1013.5
20260505024824 55 123 0.0 0.0 0.08 0.38 0.38 89 1013.2
20260505024333 55 123 0.0 0.0 0.07 0.37 0.37 89 1013.0
20260505023821 55 123 0.0 0.0 0.08 0.37 0.37 89 1013.0
20260505023329 55 123 0.0 0.0 0.08 0.36 0.36 89 1012.8
20260505022819 55 123 0.0 0.0 0.09 0.36 0.36 89 1012.7
20260505022328 55 123 0.0 0.0 0.10 0.36 0.36 89 1012.6
20260505021822 55 123 0.0 0.0 0.10 0.35 0.35 89 1012.6
20260505021333 55 123 0.0 0.0 0.10 0.35 0.35 89 1012.6
20260505020822 56 122 0.0 0.0 0.09 0.34 0.34 89 1012.7
20260505020330 56 123 0.0 0.0 0.09 0.33 0.33 89 1012.9
20260505015820 56 123 0.0 0.0 0.08 0.32 0.32 89 1012.9
20260505015332 56 122 0.0 0.0 0.08 0.31 0.31 89 1012.8
20260505014822 56 123 0.0 0.0 0.08 0.30 0.30 89 1012.8
20260505014331 56 123 0.0 0.0 0.08 0.30 0.30 89 1012.8
20260505013823 56 123 0.0 0.0 0.08 0.29 0.29 89 1012.8
20260505013331 56 123 0.0 0.0 0.08 0.28 0.28 89 1012.8
20260505012820 56 123 0.0 0.0 0.07 0.27 0.27 89 1012.7
20260505012328 56 122 0.0 0.0 0.06 0.26 0.26 89 1012.7
20260505011816 56 123 0.0 0.0 0.06 0.25 0.25 89 1012.7
20260505011327 56 123 0.0 0.0 0.07 0.25 0.25 89 1012.6
20260505010816 56 123 0.0 0.0 0.07 0.25 0.25 89 1012.6
20260505010328 56 122 0.0 0.0 0.07 0.24 0.24 89 1012.8
20260505005819 56 123 0.0 0.0 0.07 0.24 0.24 88 1012.9
20260505005332 56 123 0.0 0.0 0.07 0.23 0.23 88 1013.0
20260505004821 56 122 0.0 0.0 0.07 0.23 0.23 88 1013.2
20260505004330 56 123 0.0 0.0 0.07 0.22 0.22 88 1013.3
20260505003820 56 123 0.0 0.0 0.06 0.21 0.21 88 1013.5
20260505003328 56 122 0.0 0.0 0.06 0.20 0.20 88 1013.3
20260505002837 56 123 0.0 0.0 0.07 0.20 0.20 88 1013.3
20260505001835 56 122 0.0 0.0 0.08 0.19 0.19 88 1013.3
20260505001323 56 123 0.0 0.0 0.07 0.18 0.18 88 1013.2
20260505000816 57 123 0.0 0.0 0.08 0.18 0.18 88 1013.3
20260505000327 57 111 0.0 0.0 0.08 0.17 0.17 88 1013.5
20260504235836 57 111 0.0 0.0 0.08 0.17 0.17 88 1013.6
20260504235324 57 105 0.0 0.0 0.08 0.16 0.16 88 1013.4
20260504234833 57 122 0.0 0.0 0.08 0.16 0.16 88 1013.4
20260504234322 57 122 0.0 0.0 0.07 0.15 0.15 88 1013.3
20260504233832 57 122 0.0 0.0 0.07 0.15 0.15 88 1013.2
20260504233320 57 122 0.0 0.0 0.07 0.14 0.14 87 1013.2
20260504232817 57 122 0.0 0.0 0.06 0.13 0.13 87 1013.3
20260504232326 57 122 0.0 0.0 0.05 0.12 0.12 87 1013.3
20260504231835 57 122 0.0 0.0 0.05 0.11 0.11 87 1013.4
20260504231323 57 122 0.0 0.0 0.05 0.11 0.11 87 1013.5
20260504230832 58 122 0.0 0.0 0.05 0.10 0.10 87 1013.5
20260504230320 58 122 0.0 0.0 0.04 0.09 0.09 86 1013.5
20260504225829 58 122 0.0 0.0 0.05 0.09 0.09 86 1013.6
20260504225337 58 122 0.0 0.0 0.04 0.08 0.08 86 1013.6
20260504224826 58 122 0.0 0.0 0.04 0.08 0.08 86 1013.6
20260504224319 58 122 0.0 0.0 0.05 0.08 0.08 86 1013.6
20260504223827 58 122 0.0 0.0 0.05 0.08 0.08 85 1013.5
20260504223335 58 122 0.0 0.0 0.04 0.07 0.07 85 1013.6
20260504222824 58 122 0.0 0.0 0.04 0.07 0.07 84 1013.7
20260504222333 58 122 0.0 0.0 0.04 0.07 0.07 84 1013.8
20260504221826 58 122 0.0 0.0 0.03 0.06 0.06 83 1013.8
20260504221333 58 123 0.0 0.0 0.03 0.06 0.06 83 1013.9
20260504220821 59 123 0.0 0.0 0.02 0.05 0.05 82 1013.8
20260504220328 59 126 0.0 0.0 0.02 0.05 0.05 82 1013.8
20260504215820 59 126 0.0 0.0 0.01 0.04 0.04 81 1013.8
20260504215328 59 126 0.0 0.0 0.01 0.04 0.04 81 1013.8
20260504214818 59 126 0.0 0.0 0.01 0.04 0.04 80 1013.8
20260504214327 59 126 0.0 0.0 0.00 0.03 0.03 79 1013.8
20260504213819 59 126 0.0 0.0 0.00 0.03 0.03 79 1013.8
20260504213327 60 127 0.0 0.0 0.00 0.03 0.03 78 1014.0
20260504212818 60 126 0.0 0.0 0.00 0.03 0.03 77 1013.9
20260504212326 60 127 0.0 0.0 0.00 0.03 0.03 77 1013.8
20260504211833 60 127 0.0 0.0 0.00 0.03 0.03 77 1013.8
20260504211324 60 126 0.0 0.0 0.00 0.03 0.03 77 1013.9
20260504210833 60 127 0.0 0.0 0.00 0.03 0.03 77 1013.9
20260504210321 60 126 0.0 0.0 0.00 0.03 0.03 77 1013.9
20260504205830 60 127 0.0 0.0 0.00 0.03 0.03 77 1013.8
20260504205318 60 127 0.0 0.0 0.00 0.03 0.03 78 1013.8
20260504204831 60 128 0.0 0.0 0.00 0.03 0.03 79 1013.7
20260504204318 60 128 0.0 0.0 0.00 0.03 0.03 79 1013.5
20260504203827 60 128 0.0 0.0 0.00 0.03 0.03 79 1013.6
20260504203333 60 128 0.0 0.0 0.01 0.03 0.03 80 1013.6
20260504202826 60 129 0.0 0.0 0.01 0.03 0.03 81 1013.4
20260504202334 60 129 0.0 0.0 0.01 0.03 0.03 80 1013.5
20260504201822 59 129 0.0 0.0 0.01 0.03 0.03 80 1013.6
20260504201330 60 128 0.0 0.0 0.01 0.03 0.03 80 1013.8
20260504200822 59 128 0.0 0.0 0.01 0.03 0.03 80 1013.5
20260504200330 59 128 0.0 0.0 0.01 0.03 0.03 80 1013.8
20260504195819 59 129 0.0 0.0 0.01 0.03 0.03 79 1013.7
20260504195327 59 129 0.0 0.0 0.01 0.03 0.03 79 1013.7
20260504194836 59 129 0.0 0.0 0.01 0.03 0.03 79 1013.8
20260504194329 59 128 0.0 0.0 0.01 0.03 0.03 79 1013.8
20260504193817 59 128 0.0 0.0 0.01 0.03 0.03 79 1013.8
20260504193325 59 128 0.0 0.0 0.00 0.02 0.02 79 1013.9
20260504192834 59 190 0.0 0.0 0.00 0.02 0.02 80 1013.9
20260504192322 59 191 0.0 0.0 0.00 0.02 0.02 80 1013.9
20260504191834 59 192 0.0 0.0 0.00 0.02 0.02 79 1013.8
20260504191323 59 192 0.0 0.0 0.00 0.02 0.02 79 1013.8
20260504190833 59 192 0.0 0.0 0.00 0.02 0.02 79 1013.7
20260504190325 59 191 0.0 0.0 0.00 0.02 0.02 79 1013.8
20260504185818 59 148 0.0 0.0 0.00 0.02 0.02 80 1013.8
20260504185327 59 148 0.0 0.0 0.00 0.02 0.02 80 1013.9
20260504184816 59 146 0.0 0.0 0.00 0.02 0.02 81 1014.0
20260504184327 58 133 0.0 0.0 0.00 0.02 0.02 81 1014.0
20260504183816 58 133 0.0 0.0 0.01 0.02 0.02 81 1014.0
20260504183327 58 132 0.0 0.0 0.01 0.02 0.02 82 1014.1
20260504182836 58 128 0.0 0.0 0.01 0.02 0.02 82 1014.1
20260504182324 58 125 0.0 0.0 0.01 0.02 0.02 82 1014.2
20260504181820 58 125 0.0 0.0 0.02 0.02 0.02 82 1014.1
20260504181328 58 125 0.0 0.0 0.02 0.02 0.02 82 1014.1
20260504180817 58 168 0.0 0.0 0.02 0.02 0.02 82 1014.1
20260504180324 58 167 0.0 0.0 0.02 0.02 0.02 82 1014.0
20260504175832 58 167 0.0 0.0 0.02 0.02 0.02 81 1014.0
20260504175323 58 167 0.0 0.0 0.02 0.02 0.02 80 1013.9
20260504174831 58 167 0.0 0.0 0.02 0.02 0.02 79 1013.8
20260504174321 58 168 0.0 0.0 0.02 0.02 0.02 79 1013.8
20260504173829 58 168 0.0 0.0 0.01 0.01 0.01 78 1013.7
20260504173321 58 168 0.0 0.0 0.01 0.01 0.01 78 1013.7
20260504172828 58 163 0.0 0.0 0.01 0.01 0.01 78 1013.6
20260504172316 58 164 0.0 0.0 0.01 0.01 0.01 77 1013.6
20260504171825 58 164 0.0 0.0 0.00 0.00 0.00 76 1013.5
20260504171332 58 159 0.0 0.0 0.00 0.00 0.00 75 1013.6
20260504170821 58 158 0.0 0.0 0.00 0.00 0.00 75 1013.3
20260504170330 59 165 0.0 0.0 0.00 0.00 0.00 75 1013.3
20260504160319 58 115 0.0 0.0 0.00 0.00 0.00 76 1013.5
20260504150825 58 170 0.0 0.0 0.00 0.00 0.00 79 1013.0
20260504150314 58 152 0.0 0.0 0.00 0.00 0.00 80 1013.0